Anaktuvuk Pass, AK

9:56 AM AKDT on October 23, 2017 (GMT -0800)
Anaktuvuk Pass

Weather History for PAKP - November, 2011

Change the Weather History Date:

Wednesday, November 16, 2011

  Actual Average Record
Temperature  
Mean Temperature -7 °F -  
Max Temperature 0 °F 5 °F 19 °F (1996)
Min Temperature -14 °F -1 °F -29 °F (2003)
Degree Days  
Heating Degree Days 72    
Moisture  
Dew Point -16 °F    
Average Humidity 61    
Maximum Humidity 66    
Minimum Humidity 49    
Precipitation  
Precipitation 0.00 in - - ()
Sea Level Pressure  
Sea Level Pressure 30.27 in    
Wind  
Wind Speed 10 mph (SE)    
Max Wind Speed 17 mph    
Max Gust Speed 22 mph    
Visibility 6 miles    
Events      
Averages and records for this station are not official NWS values.
T = Trace of Precipitation, MM = Missing Value Source: NWS Daily Summary

Daily Weather History Graph

Daily Weather History Graph

Search for Another Location

Airport or City:

Trip Planner

Search our weather history database for the weather conditions in past years. The results will help you decide how hot, cold, wet, or windy it might be!

Date:

Astronomy

Nov. 16, 2011 Rise Set
Actual Time 10:26 AM AKST 3:15 PM AKST
Civil Twilight 9:05 AM AKST 4:37 PM AKST
Nautical Twilight 7:51 AM AKST 5:51 PM AKST
Astronomical Twilight 6:44 AM AKST 6:57 PM AKST
Moon 9:23 PM AKST (11/16) 2:36 PM AKST (11/16)
Length of Visible Light 7h 31m
Length of Day
4h 49m
Waning Gibbous, 68% of the Moon is Illuminated
Nov 16
Waning Gibbous
Nov 18
Last Quarter
Nov 24
New
Dec 2
First Quarter
Dec 10
Full

Hourly Weather History & Observations

Time (AKST) Temp. Windchill Dew Point Humidity Pressure Visibility Wind Dir Wind Speed Gust Speed Precip Events Conditions
12:16 AM -0.4 °F -15.7 °F -9.4 °F 66% 30.15 in 2.0 mi SE 9.2 mph - N/A   Overcast
12:36 AM -0.4 °F -15.7 °F -9.4 °F 66% 30.16 in 2.5 mi ESE 9.2 mph - N/A   Overcast
12:56 AM -0.4 °F -16.7 °F -11.2 °F 60% 30.16 in 2.5 mi ESE 10.4 mph - N/A   Overcast
1:16 AM -0.4 °F -16.7 °F -9.4 °F 66% 30.16 in 2.5 mi ESE 10.4 mph - N/A   Overcast
1:36 AM -0.4 °F -17.6 °F -11.2 °F 60% 30.16 in 3.0 mi ESE 11.5 mph 16.1 mph N/A   Overcast
1:56 AM -0.4 °F -14.7 °F -11.2 °F 60% 30.16 in 3.0 mi East 8.1 mph - N/A   Overcast
2:16 AM -0.4 °F -15.7 °F -9.4 °F 66% 30.17 in 3.0 mi ESE 9.2 mph - N/A   Overcast
2:36 AM -0.4 °F -15.7 °F -9.4 °F 66% 30.17 in 2.5 mi SE 9.2 mph - N/A   Overcast
3:16 AM -0.4 °F -16.7 °F -9.4 °F 66% 30.17 in 2.5 mi SE 10.4 mph - N/A   Overcast
3:36 AM -0.4 °F -14.7 °F -11.2 °F 60% 30.18 in 3.0 mi SSE 8.1 mph - N/A   Overcast
3:56 AM -0.4 °F -18.4 °F -11.2 °F 60% 30.18 in 3.0 mi SSE 12.7 mph - N/A   Overcast
4:16 AM -0.4 °F -15.7 °F -11.2 °F 60% 30.19 in 3.0 mi SSE 9.2 mph - N/A   Overcast
4:36 AM -0.4 °F -18.4 °F -11.2 °F 60% 30.19 in 3.0 mi South 12.7 mph 18.4 mph N/A   Overcast
4:56 AM -0.4 °F - -9.4 °F 66% 30.19 in 4.0 mi Calm Calm - N/A   Overcast
5:16 AM -0.4 °F - - N/A% 30.19 in 5.0 mi Calm Calm - N/A   Overcast
5:36 AM -0.4 °F -18.4 °F -14.8 °F 51% 30.20 in 7.0 mi ESE 12.7 mph 16.1 mph N/A   Overcast
5:56 AM -0.4 °F -16.7 °F -13.0 °F 55% 30.20 in 3.0 mi ESE 10.4 mph 17.3 mph N/A   Overcast
6:16 AM -0.4 °F -17.6 °F -11.2 °F 60% 30.21 in 2.5 mi SE 11.5 mph - N/A   Overcast
6:36 AM -2.2 °F -22.2 °F -11.2 °F 66% 30.21 in 2.0 mi SE 15.0 mph 21.9 mph N/A   Overcast
7:16 AM -2.2 °F -23.5 °F -11.2 °F 66% 30.21 in 1.8 mi SE 17.3 mph - N/A   Overcast
7:36 AM -2.2 °F -22.2 °F -11.2 °F 66% 30.22 in 2.0 mi SE 15.0 mph - N/A   Overcast
7:56 AM -2.2 °F -19.9 °F -13.0 °F 60% 30.23 in 2.0 mi SE 11.5 mph - N/A   Overcast
8:16 AM -2.2 °F -19.9 °F -11.2 °F 66% 30.23 in 1.8 mi SE 11.5 mph - N/A   Overcast
8:36 AM -2.2 °F -18.9 °F -11.2 °F 66% 30.24 in 2.5 mi SE 10.4 mph - N/A   Overcast
8:56 AM -2.2 °F -20.7 °F -13.0 °F 60% 30.25 in 2.5 mi SE 12.7 mph - N/A   Overcast
9:16 AM -2.2 °F -21.5 °F -14.8 °F 55% 30.26 in 3.0 mi SE 13.8 mph - N/A   Overcast
9:36 AM -2.2 °F -19.9 °F -14.8 °F 55% 30.26 in 3.0 mi SE 11.5 mph - N/A   Overcast
9:56 AM -4.0 °F -21.2 °F -14.8 °F 60% 30.27 in 2.5 mi SSE 10.4 mph - N/A   Overcast
10:16 AM -4.0 °F -21.2 °F -13.0 °F 65% 30.27 in 1.5 mi SSE 10.4 mph 20.7 mph N/A   Overcast
10:36 AM -4.0 °F -22.1 °F -14.8 °F 60% 30.27 in 1.2 mi SE 11.5 mph - N/A   Overcast
10:56 AM -5.8 °F -25.2 °F -14.8 °F 65% 30.28 in 1.8 mi SE 12.7 mph - N/A   Overcast
11:16 AM -5.8 °F -25.2 °F -14.8 °F 65% 30.28 in 1.5 mi SSE 12.7 mph - N/A   Overcast
11:36 AM -5.8 °F -24.4 °F -14.8 °F 65% 30.29 in 1.8 mi SSE 11.5 mph - N/A   Overcast
11:56 AM -5.8 °F -22.4 °F -14.8 °F 65% 30.29 in 2.0 mi SE 9.2 mph - N/A   Overcast
12:16 PM -5.8 °F -19.9 °F -16.6 °F 60% 30.30 in 4.0 mi ESE 6.9 mph - N/A   Overcast
12:36 PM -5.8 °F -23.4 °F -14.8 °F 65% 30.31 in 8.0 mi SE 10.4 mph - N/A   Overcast
12:56 PM -5.8 °F -24.4 °F -18.4 °F 55% 30.31 in 7.0 mi SE 11.5 mph - N/A   Overcast
1:16 PM -7.6 °F -28.3 °F -16.6 °F 65% 30.31 in 10.0 mi SE 13.8 mph - N/A   Overcast
1:36 PM -7.6 °F -26.6 °F -18.4 °F 59% 30.32 in 10.0 mi SE 11.5 mph - N/A   Overcast
1:56 PM -7.6 °F -25.7 °F -18.4 °F 59% 30.32 in 10.0 mi ESE 10.4 mph - N/A   Overcast
2:16 PM -7.6 °F -25.7 °F -18.4 °F 59% 30.33 in 7.0 mi ESE 10.4 mph - N/A   Overcast
2:36 PM -7.6 °F -25.7 °F -18.4 °F 59% 30.33 in 9.0 mi SE 10.4 mph - N/A   Overcast
2:56 PM -7.6 °F -20.6 °F -20.2 °F 54% 30.34 in 5.0 mi ESE 5.8 mph - N/A   Overcast
3:16 PM -9.4 °F -25.6 °F -20.2 °F 59% 30.34 in 8.0 mi ESE 8.1 mph - N/A   Overcast
3:36 PM -9.4 °F -25.6 °F -20.2 °F 59% 30.34 in 10.0 mi ESE 8.1 mph - N/A   Overcast
3:56 PM -7.6 °F -25.7 °F -16.6 °F 65% 30.34 in 10.0 mi ESE 10.4 mph - N/A   Overcast
4:16 PM -7.6 °F -25.7 °F -18.4 °F 59% 30.35 in 10.0 mi SE 10.4 mph - N/A   Overcast
4:36 PM -7.6 °F -26.6 °F -18.4 °F 59% 30.35 in 10.0 mi ESE 11.5 mph - N/A   Overcast
4:56 PM -7.6 °F -24.6 °F -20.2 °F 54% 30.36 in 10.0 mi ESE 9.2 mph - N/A   Overcast
5:16 PM -9.4 °F -28.9 °F -22.0 °F 54% 30.36 in 10.0 mi ESE 11.5 mph - N/A   Overcast
5:36 PM -9.4 °F -27.9 °F -22.0 °F 54% 30.36 in 10.0 mi SE 10.4 mph - N/A   Overcast
5:56 PM -9.4 °F -26.8 °F -18.4 °F 65% 30.37 in 10.0 mi SE 9.2 mph - N/A   Overcast
6:16 PM -9.4 °F -27.9 °F -23.8 °F 49% 30.37 in 10.0 mi ESE 10.4 mph - N/A   Overcast
6:36 PM -11.2 °F -29.0 °F -20.2 °F 64% 30.38 in 10.0 mi ESE 9.2 mph - N/A   Overcast
6:56 PM -11.2 °F -26.4 °F -23.8 °F 54% 30.38 in 10.0 mi ESE 6.9 mph - N/A   Overcast
7:16 PM -11.2 °F -24.8 °F -25.6 °F 49% 30.38 in 10.0 mi ENE 5.8 mph - N/A   Scattered Clouds
7:36 PM -13.0 °F -25.1 °F -23.8 °F 59% 30.39 in 10.0 mi East 4.6 mph - N/A   Clear
7:56 PM -11.2 °F - -20.2 °F 64% 30.39 in 10.0 mi Calm Calm - N/A   Clear
8:16 PM -14.8 °F -29.1 °F -25.6 °F 58% 30.40 in 10.0 mi East 5.8 mph - N/A   Clear
8:36 PM -14.8 °F -27.2 °F -23.8 °F 64% 30.40 in 10.0 mi East 4.6 mph - N/A   Scattered Clouds
8:56 PM -14.8 °F -27.2 °F -22.0 °F 70% 30.40 in 10.0 mi East 4.6 mph - N/A   Overcast
9:16 PM -13.0 °F -22.7 °F -22.0 °F 64% 30.40 in 10.0 mi ESE 3.5 mph - N/A   Overcast
9:36 PM -14.8 °F - -23.8 °F 64% 30.40 in 10.0 mi Calm Calm - N/A   Overcast
9:56 PM -14.8 °F - -25.6 °F 58% 30.41 in 10.0 mi Calm Calm - N/A   Overcast
10:16 PM -14.8 °F - -25.6 °F 58% 30.41 in 8.0 mi Calm Calm - N/A   Overcast
10:36 PM -14.8 °F - -25.6 °F 58% 30.41 in 10.0 mi Calm Calm - N/A   Overcast
10:56 PM -18.4 °F -31.4 °F -29.2 °F 58% 30.41 in 10.0 mi ESE 4.6 mph - N/A   Overcast
11:16 PM -14.8 °F -30.8 °F -22.0 °F 70% 30.40 in 10.0 mi ESE 6.9 mph - N/A   Mostly Cloudy
11:36 PM -11.2 °F -27.8 °F -18.4 °F 70% 30.41 in 10.0 mi ESE 8.1 mph - N/A   Partly Cloudy
11:56 PM -14.8 °F -29.1 °F -25.6 °F 58% 30.42 in 10.0 mi ESE 5.8 mph - N/A   Partly Cloudy